Time,TemperatureF,DewpointF,PressureIn,WindDirection,WindDirectionDegrees,WindSpeedMPH,WindSpeedGustMPH,Humidity,HourlyPrecipIn,Conditions,Clouds,dailyrainin,SoftwareType,DateUTC
2013-10-14 00:11:00,58.0,46.0,30.03,SE,134,1.0,-999.0,64,-99.99,,,-99.99,,2013-10-14 07:11:00,
2013-10-14 00:22:00,59.0,47.0,30.03,SE,133,1.0,-999.0,65,-99.99,,,-99.99,,2013-10-14 07:22:00,
2013-10-14 00:42:00,59.0,45.0,30.04,SE,132,1.0,-999.0,59,-99.99,,,-99.99,,2013-10-14 07:42:00,
2013-10-14 00:52:00,60.0,45.0,30.04,SE,132,1.0,-999.0,57,-99.99,,,-99.99,,2013-10-14 07:52:00,
2013-10-14 01:12:00,61.0,45.0,30.04,SE,132,0.0,-999.0,55,-99.99,,,-99.99,,2013-10-14 08:12:00,
2013-10-14 01:21:00,62.0,45.0,30.04,SE,132,1.0,-999.0,54,-99.99,,,-99.99,,2013-10-14 08:21:00,
2013-10-14 01:42:00,63.0,43.0,30.04,SE,132,0.0,-999.0,48,-99.99,,,-99.99,,2013-10-14 08:42:00,
2013-10-14 01:52:00,63.0,44.0,30.04,SE,133,1.0,-999.0,50,-99.99,,,-99.99,,2013-10-14 08:52:00,
2013-10-14 02:11:00,62.0,43.0,30.04,SE,136,1.0,-999.0,49,-99.99,,,-99.99,,2013-10-14 09:11:00,
2013-10-14 02:22:00,62.0,43.0,30.04,SE,140,0.0,-999.0,49,-99.99,,,-99.99,,2013-10-14 09:22:00,
2013-10-14 02:43:00,62.0,44.0,30.05,SE,144,1.0,-999.0,51,-99.99,,,-99.99,,2013-10-14 09:43:00,
2013-10-14 02:53:00,62.0,43.0,30.05,SE,144,1.0,-999.0,50,-99.99,,,-99.99,,2013-10-14 09:53:00,
2013-10-14 03:22:00,62.0,43.0,30.04,SE,144,1.0,-999.0,50,-99.99,,,-99.99,,2013-10-14 10:22:00,
2013-10-14 03:42:00,62.0,42.0,30.04,SSE,152,1.0,-999.0,48,-99.99,,,-99.99,,2013-10-14 10:42:00,
2013-10-14 03:53:00,62.0,42.0,30.04,SSE,152,0.0,-999.0,48,-99.99,,,-99.99,,2013-10-14 10:53:00,
2013-10-14 04:22:00,63.0,40.0,30.03,SSE,151,1.0,-999.0,42,-99.99,,,-99.99,,2013-10-14 11:22:00,
2013-10-14 04:42:00,62.0,42.0,30.03,SSE,151,0.0,-999.0,47,-99.99,,,-99.99,,2013-10-14 11:42:00,
2013-10-14 04:52:00,61.0,42.0,30.03,SE,141,1.0,-999.0,49,-99.99,,,-99.99,,2013-10-14 11:52:00,
2013-10-14 05:22:00,62.0,41.0,30.04,SE,141,1.0,-999.0,46,-99.99,,,-99.99,,2013-10-14 12:22:00,
2013-10-14 05:42:00,62.0,42.0,30.04,SE,141,0.0,-999.0,48,-99.99,,,-99.99,,2013-10-14 12:42:00,
2013-10-14 05:52:00,62.0,40.0,30.04,SE,142,0.0,-999.0,44,-99.99,,,-99.99,,2013-10-14 12:52:00,
2013-10-14 06:21:00,62.0,40.0,30.04,SE,144,0.0,-999.0,44,-99.99,,,-99.99,,2013-10-14 13:21:00,
2013-10-14 06:41:00,61.0,40.0,30.04,SE,144,1.0,-999.0,45,-99.99,,,-99.99,,2013-10-14 13:41:00,
2013-10-14 06:52:00,61.0,38.0,30.05,SE,144,0.0,-999.0,42,-99.99,,,-99.99,,2013-10-14 13:52:00,
2013-10-14 07:11:00,62.0,41.0,30.05,SE,143,0.0,-999.0,46,-99.99,,,-99.99,,2013-10-14 14:11:00,
2013-10-14 07:22:00,61.0,42.0,30.05,SE,130,1.0,-999.0,50,-99.99,,,-99.99,,2013-10-14 14:22:00,
2013-10-14 07:42:00,62.0,43.0,30.05,SE,129,1.0,-999.0,49,-99.99,,,-99.99,,2013-10-14 14:42:00,
2013-10-14 08:44:00,63.0,41.0,30.06,ESE,117,0.0,-999.0,44,-99.99,,,-99.99,,2013-10-14 15:44:00,
2013-10-14 09:53:00,65.0,43.0,30.07,ESE,117,0.0,-999.0,45,-99.99,,,-99.99,,2013-10-14 16:53:00,
2013-10-14 10:11:00,65.0,43.0,30.07,ESE,118,0.0,-999.0,44,-99.99,,,-99.99,,2013-10-14 17:11:00,
2013-10-14 10:22:00,65.0,42.0,30.07,ESE,119,0.0,-999.0,43,-99.99,,,-99.99,,2013-10-14 17:22:00,
2013-10-14 10:42:00,66.0,43.0,30.07,SE,132,1.0,-999.0,44,-99.99,,,-99.99,,2013-10-14 17:42:00,
2013-10-14 10:52:00,66.0,43.0,30.07,SE,141,1.0,-999.0,44,-99.99,,,-99.99,,2013-10-14 17:52:00,
2013-10-14 11:12:00,67.0,43.0,30.07,SSE,168,2.0,-999.0,41,-99.99,,,-99.99,,2013-10-14 18:12:00,
2013-10-14 11:22:00,67.0,42.0,30.07,South,178,3.0,-999.0,40,-99.99,,,-99.99,,2013-10-14 18:22:00,
2013-10-14 11:42:00,68.0,43.0,30.06,South,180,2.0,-999.0,41,-99.99,,,-99.99,,2013-10-14 18:42:00,
2013-10-14 11:52:00,68.0,43.0,30.06,South,180,2.0,-999.0,41,-99.99,,,-99.99,,2013-10-14 18:52:00,
2013-10-14 12:11:00,69.0,44.0,30.06,South,180,2.0,-999.0,40,-99.99,,,-99.99,,2013-10-14 19:11:00,
2013-10-14 12:21:00,69.0,42.0,30.06,South,183,2.0,-999.0,37,-99.99,,,-99.99,,2013-10-14 19:21:00,
2013-10-14 12:42:00,70.0,43.0,30.05,South,188,3.0,-999.0,37,-99.99,,,-99.99,,2013-10-14 19:42:00,
2013-10-14 12:52:00,71.0,43.0,30.05,SSW,200,2.0,-999.0,37,-99.99,,,-99.99,,2013-10-14 19:52:00,
2013-10-14 13:11:00,70.0,41.0,30.04,SW,223,3.0,-999.0,35,-99.99,,,-99.99,,2013-10-14 20:11:00,
2013-10-14 13:22:00,71.0,43.0,30.04,SW,223,2.0,-999.0,36,-99.99,,,-99.99,,2013-10-14 20:22:00,
2013-10-14 13:42:00,70.0,43.0,30.03,SSW,212,3.0,-999.0,37,-99.99,,,-99.99,,2013-10-14 20:42:00,
2013-10-14 13:52:00,71.0,42.0,30.03,SSW,213,3.0,-999.0,35,-99.99,,,-99.99,,2013-10-14 20:52:00,
2013-10-14 14:21:00,70.0,43.0,30.02,SSW,210,3.0,-999.0,37,-99.99,,,-99.99,,2013-10-14 21:21:00,
2013-10-14 14:44:00,71.0,43.0,30.01,SW,221,3.0,-999.0,37,-99.99,,,-99.99,,2013-10-14 21:44:00,
2013-10-14 14:54:00,71.0,40.0,30.01,SW,222,4.0,-999.0,32,-99.99,,,-99.99,,2013-10-14 21:54:00,
2013-10-14 15:24:00,70.0,45.0,30.00,SW,222,2.0,-999.0,41,-99.99,,,-99.99,,2013-10-14 22:24:00,
2013-10-14 15:43:00,70.0,45.0,29.99,SW,222,1.0,-999.0,40,-99.99,,,-99.99,,2013-10-14 22:43:00,
2013-10-14 15:54:00,70.0,45.0,29.98,SW,222,0.0,-999.0,41,-99.99,,,-99.99,,2013-10-14 22:54:00,
2013-10-14 16:22:00,73.0,41.0,29.98,SW,221,1.0,-999.0,32,-99.99,,,-99.99,,2013-10-14 23:22:00,
2013-10-14 16:52:00,74.0,42.0,29.96,SW,220,2.0,-999.0,32,-99.99,,,-99.99,,2013-10-14 23:52:00,
2013-10-14 17:11:00,74.0,42.0,29.96,SW,220,2.0,-999.0,32,-99.99,,,-99.99,,2013-10-15 00:11:00,
2013-10-14 17:21:00,75.0,42.0,29.96,SW,219,1.0,-999.0,31,-99.99,,,-99.99,,2013-10-15 00:21:00,
2013-10-14 17:42:00,75.0,43.0,29.96,SW,219,1.0,-999.0,32,-99.99,,,-99.99,,2013-10-15 00:42:00,
2013-10-14 17:52:00,74.0,45.0,29.95,SW,219,0.0,-999.0,35,-99.99,,,-99.99,,2013-10-15 00:52:00,
2013-10-14 18:11:00,73.0,45.0,29.95,SW,219,0.0,-999.0,37,-99.99,,,-99.99,,2013-10-15 01:11:00,
2013-10-14 18:21:00,73.0,45.0,29.95,SW,219,0.0,-999.0,37,-99.99,,,-99.99,,2013-10-15 01:21:00,
2013-10-14 18:42:00,73.0,44.0,29.95,SW,219,0.0,-999.0,35,-99.99,,,-99.99,,2013-10-15 01:42:00,
2013-10-14 18:52:00,72.0,45.0,29.95,SW,219,0.0,-999.0,38,-99.99,,,-99.99,,2013-10-15 01:52:00,
2013-10-14 19:12:00,70.0,43.0,29.95,SW,219,0.0,-999.0,38,-99.99,,,-99.99,,2013-10-15 02:12:00,
2013-10-14 19:21:00,69.0,43.0,29.95,SW,219,0.0,-999.0,39,-99.99,,,-99.99,,2013-10-15 02:21:00,
2013-10-14 19:52:00,69.0,43.0,29.95,SW,219,0.0,-999.0,39,-99.99,,,-99.99,,2013-10-15 02:52:00,
2013-10-14 20:12:00,69.0,42.0,29.95,SW,219,1.0,-999.0,38,-99.99,,,-99.99,,2013-10-15 03:12:00,
2013-10-14 20:22:00,69.0,41.0,29.95,SW,219,0.0,-999.0,36,-99.99,,,-99.99,,2013-10-15 03:22:00,